Location: Allaines
(49.9632°N, 2.9458°E)
Time: 07:59:22
(UTC+00:00)

STARLINK-1210 - Pass Details

Date: 09 April 2020
Orbit: 548 x 551 km, 53.0° (Epoch: 03 June)

Event Time Altitude Azimuth Distance (km) Brightness Sun altitude
Rises 19:54:40 0° 291° (WNW) 2,719 9.1 -13.0°
Reaches altitude 10° 19:57:04 10° 281° (W) 1,823 7.5 -13.3°
Maximum altitude 20:00:44 31° 219° (SW) 976 4.9 -13.8°
Enters shadow 20:03:25 16° 164° (SSE) 1,491 5.4 -14.2°
